Tracking 19176 objects as of 28-May-2018
HD Live streaming from Space Station
objects crossing your sky now

ARIANE 5 DEB (SYLDA)

Track ARIANE 5 DEB (SYLDA) now!


NORAD ID: 28914
Int'l Code: 2005-049D
Perigee: 632.0 km
Apogee: 36,057.2 km
Inclination: 4.7 °
Period: 644.5 minutes
Semi major axis: 24715 km
RCS: 22.4158 m2 (large)
Launch date: December 21, 2005
Source: France (FR)
Launch site: FRENCH GUIANA (FRGUI)

Note: This is SATELLITE DEBRIS
aabbcc
Your satellite tracking list
Your tracking list is empty




NASA's NSSDC Master Catalog

Two Line Element Set (TLE):
1 28914U 05049D   18147.18139899 -.00000173  00000-0  90569-3 0  9995
2 28914   4.6806 352.5517 7166563 283.2772 351.6487  2.23432583101450
Source of the keplerian elements: AFSPC